www.pogodaiklimat.ru

Погода и климат >> Архив погоды >> Индия >> Керала >> Кожикоде


ПОГОДА в Кожикоде

  • Прогноз погоды в Кожикоде
  • Монитор погоды в Кожикоде

АРХИВ ПОГОДЫ в Кожикоде

Время (UTC), дата Ветер
(напр.,м/с)
 
Видим.   Явления Облачность Т
(С)
Тd
(С)
f
(%)
Тe
(С)
Тes
(С)
Комфортность P
(гПа)
Po
(гПа)
Тmin
(С)
Tmax
(С)
R
(мм)
R24
(мм)
S
(см)
06 17.01 штиль 0 10 км 4/4 600 м
[]
+30.6 +17.8 46 +35 +47 очень
душно
1013.4 1013.0
09 17.01 ЮЗ 1 10 км 4/1 600 м
[Sc diur, vesp Ci sp]
+31.6 +18.7 46 +36 +48 очень
душно
1009.9 1010.0
12 17.01 штиль 0 10 км 3/0
[Ci sp]
+31.2 +21.1 55 +39 +40 очень
душно
1008.8 1009.0 +33.0
15 17.01 штиль 0 4000 м ясно +26.0 +20.5 72 +32 +32 очень
душно
1011.0 1011.0
18 17.01 штиль 0 4000 м ясно +24.4 +20.7 80 +30 +30 очень
душно
1012.3 1012.0
21 17.01 штиль 0 4000 м ясно +23.2 +20.4 84 +30 +30 очень
душно
1011.1 1011.0
00 18.01 штиль 0 4000 м ясно +23.0 +18.9 78 +29 +29 очень
душно
1011.0 1011.0
03 18.01 штиль 0 10 км ясно +23.0 +17.9 73 +28 +34 душно 1013.5 1014.0 +21.5 +33.0
06 18.01 ЮЗ 1 10 км 8/0
[]
+30.4 +19.4 52 +36 +47 очень
душно
1013.6 1014.0
09 18.01 штиль 0 10 км ясно +32.4 +21.1 51 +40 +56 опасность
солнечного
удара
1010.3 1010.0
12 18.01 штиль 0 10 км ясно +31.0 +23.5 64 +42 +43 опасность
перегрева
1010.3 1010.0 +33.2
15 18.01 штиль 0 4000 м ясно +26.6 +24.0 86 +37 +37 очень
душно
1012.1 1012.0
18 18.01 штиль 0 4000 м ясно +25.0 +24.0 94 +34 +34 очень
душно
1013.2 1013.0
21 18.01 штиль 0 4000 м 5/3 600 м
[Sc diur, vesp Ci sp]
+24.0 +22.2 90 +31 +31 очень
душно
1012.4 1012.0
00 19.01 штиль 0 4000 м 3/1 600 м
[Sc diur, vesp Ci sp]
+23.0 +21.5 91 +31 +31 очень
душно
1012.3 1012.0
03 19.01 штиль 0 10 км ясно +24.0 +21.0 83 +30 +35 очень
душно
1014.5 1015.0 +22.8 +33.2
06 19.01 штиль 0 10 км ясно +30.6 +22.7 63 +40 +61 опасность
солнечного
удара
1015.4 1015.0
09 19.01 штиль 0 10 км 1/0 300 м
[Ci fib]
+32.8 +23.3 57 +43 +59 опасность
перегрева
1012.5 1013.0
12 19.01 З 1 10 км ясно +30.4 +23.1 65 +41 +41 опасность
перегрева
1010.6 1011.0 +33.4
15 19.01 штиль 0 4000 м ясно +27.8 +22.2 72 +36 +36 очень
душно
1012.1 1012.0
18 19.01 штиль 0 4000 м ясно +25.2 +22.2 83 +33 +33 очень
душно
1014.1 1014.0
21 19.01 штиль 0 4000 м ясно +24.0 +22.2 90 +31 +31 очень
душно
1013.4 1013.0
00 20.01 штиль 0 4000 м 3/1 600 м
[Sc diur, vesp Ci sp]
+23.4 +21.9 91 +32 +32 очень
душно
1013.1 1013.0
03 20.01 штиль 0 10 км 4/3 600 м
[Sc diur, vesp Ci sp]
+23.6 +20.2 81 +29 +32 душно 1015.5 1016.0 +22.4 +33.4
06 20.01 ЮЗ 1 10 км 4/3 600 м
[Sc diur, vesp Ci fib]
+30.2 +20.6 56 +37 +49 очень
душно
1015.7 1016.0
09 20.01 штиль 0 50 км ?/? +30.0 +19.3 53 +36 +36 очень
душно
1011.4 1011.0
12 20.01 штиль 0 10 км 5/3 600 м
[Sc diur, vesp Ci sp]
+30.2 +20.9 58 +38 +38 очень
душно
1010.5 1011.0 +31.3
15 20.01 штиль 0 4000 м 3/0
[Ci sp]
+27.0 +22.6 77 +36 +36 очень
душно
1012.8 1013.0
18 20.01 штиль 0 4000 м 3/0
[Ci sp]
+25.0 +24.0 94 +34 +34 очень
душно
1014.1 1014.0
21 20.01 штиль 0 4000 м ясно +24.0 +22.2 90 +31 +31 очень
душно
1012.7 1013.0
00 21.01 штиль 0 4000 м 3/0
[Ci sp]
+23.6 +22.4 93 +31 +31 очень
душно
1013.0 1013.0
03 21.01 штиль 0 10 км 3/0
[Ci sp]
+21.4 +17.8 80 +26 +30 душно 1015.0 1015.0 +20.3 +31.3
06 21.01 штиль 0 10 км ясно +29.6 +17.7 49 +34 +55 опасность
солнечного
удара
1015.6 1016.0
09 21.01 штиль 0 10 км 4/3 600 м
[Sc diur, vesp Ci sp]
+32.6 +19.2 45 +38 +49 очень
душно
1012.6 1013.0
12 21.01 З 1 10 км 5/1 600 м
[Sc diur, vesp Ac trans Ci fib]
+31.0 +21.5 57 +39 +40 очень
душно
1011.6 1012.0 +33.0
15 21.01 штиль 0 4000 м 4/3 600 м
[Sc diur, vesp Ci sp]
+27.0 +21.9 74 +35 +35 очень
душно
1013.7 1014.0
18 21.01 штиль 0 4000 м 4/1 300 м
[Sc diur, vesp Ci sp]
+24.8 +22.1 85 +32 +32 очень
душно
1013.4 1013.0
21 21.01 штиль 0 4000 м 1/1 300 м
[Sc diur, vesp]
+24.0 +22.2 90 +31 +31 очень
душно
1012.9 1013.0
00 22.01 штиль 0 4000 м 4/3 600 м
[Sc diur, vesp Ci sp]
+23.0 +19.9 83 +30 +30 очень
душно
1012.7 1013.0
03 22.01 штиль 0 10 км ясно +23.8 +18.1 70 +28 +33 душно 1015.2 1015.0 +22.4 +33.0
06 22.01 штиль 0 10 км 9/3 600 м
[Sc diur, vesp Ac trans Ci sp]
+29.8 +20.8 59 +37 +46 очень
душно
1015.5 1016.0
09 22.01 штиль 0 10 км ясно +33.2 +21.4 50 +41 +57 опасность
перегрева
1012.2 1012.0
12 22.01 штиль 0 10 км ясно +30.8 +22.3 61 +40 +41 очень
душно
1011.5 1012.0 +33.7
15 22.01 штиль 0 4000 м ясно +27.6 +22.0 72 +36 +36 очень
душно
1013.3 1013.0
18 22.01 штиль 0 4000 м ясно +25.6 +22.3 82 +33 +33 очень
душно
1013.4 1013.0
21 22.01 штиль 0 4000 м ясно +24.4 +22.0 86 +31 +31 очень
душно
1012.8 1013.0
00 23.01 штиль 0 4000 м ясно +23.4 +21.3 88 +31 +31 очень
душно
1013.2 1013.0
03 23.01 штиль 0 10 км ясно +24.0 +20.0 78 +29 +35 душно 1014.7 1015.0 +21.4 +33.7
06 23.01 штиль 0 10 км ясно +31.4 +21.7 56 +40 +60 опасность
солнечного
удара
1014.2 1014.0
09 23.01 ЮЗ 2 10 км ясно +32.6 +21.7 53 +41 +54 опасность
перегрева
1010.3 1010.0
12 23.01 З 2 10 км ясно +31.4 +23.3 62 +42 +43 опасность
перегрева
1010.5 1011.0 +33.8
15 23.01 штиль 0 4000 м ясно +28.2 +23.0 73 +38 +38 очень
душно
1012.7 1013.0
18 23.01 штиль 0 4000 м ясно +26.4 +21.9 76 +34 +34 очень
душно
1013.6 1014.0
21 23.01 штиль 0 4000 м ясно +25.2 +21.6 80 +32 +32 очень
душно
1012.9 1013.0
00 24.01 штиль 0 4000 м ясно +23.8 +21.7 88 +30 +30 очень
душно
1013.9 1014.0
03 24.01 штиль 0 10 км ясно +24.6 +23.4 93 +33 +38 очень
душно
1015.6 1016.0 +22.8 +33.8

 

Местоположение метеостанции Кожикоде (Керала, Индия): широта 11.25 долгота 75.78 высота над уровнем моря 5 м.

В архиве по умолчанию представлена погода в Кожикоде за последнюю неделю. Архивные данные за месяц целиком и за предыдущие месяцы, начиная с января 2011 года, Вы можете получить, выбрав интересующий диапазон дат из раскрывающегося списка и нажав кнопку "Ввод!".


*Определитесь, кто Вы:
робот инопланетянин человек

Внимание! Время в таблицах - всемирное. Для получения местного времени необходимо прибавить поправку, которая равна 5.5 ч.

Смотрите также архив погоды в соседних городах и на ближайших метеорологических станциях:

Погода в Карипере (Керала, Индия) (23 км)
Погода в Каннаноре (Керала, Индия) (81 км)
Погода в Триссуре (Керала, Индия) (94 км)
Погода в Удагамандаламе (Тамилнад, Индия) (105 км)
Погода в Палаккаде (Керала, Индия) (109 км)
Погода в Кунуре (Тамилнад, Индия) (112 км)
Погода в Мадикери (Карнатака, Индия) (130 км)
Погода в Коти (Керала, Индия) (140 км)
Погода в Коимбатуре (Тамилнад, Индия) (141 км)
Погода в Чамраджнагаре (Карнатака, Индия) (146 км)

Пояснения к столбцам:

Ветер - указаны скорость ветра в м/с - средняя за 10 мин, порывы в срок и между сроками (в фигурных скобках) и направление, откуда дует ветер: С - северный, СВ - северо-восточный, В - восточный, ЮВ - юго-восточный, Ю - южный, ЮЗ - юго-западный, З - западный, СЗ - северо-западный.
Видимость - горизонтальная дальность видимости в метрах или километрах. При видимости от 1 до 10 км при отсутствии осадков обычно наблюдается дымка, при ухудшении видимости до 1 км и менее - туман. В сухую погоду видимость может ухудшаться дымом, пылью или мглою.
Явления - указаны атмосферные явления, наблюдавшиеся в срок или в последний час перед сроком; фигурными скобками обозначены явления, наблюдавшиеся между сроками (за 1-3 часа до срока); квадратными скобками обозначены град или гололедные отложения с указанием их диаметра в мм.
Облачность - указаны через наклонную черту общая и нижняя облачность в баллах и высота нижней границы облаков в метрах; квадратными скобками обозначены формы облаков: Ci - перистые, Cs - перисто-слоистые, Cc - перисто-кучевые, Ac - высококучевые, As - высокослоистые, Sc - слоисто-кучевые, Ns - слоисто-дождевые, Cu - кучевые, Cb - кучево-дождевые. Подробнее классификацию облаков см. в Атласе облаков (PDF).
T - Температура воздуха - температура, измеренная на высоте 2 м над землей.
Td - Температура точки росы - температура, при понижении до которой содержащийся в воздухе водяной пар достигнет насыщения.
f - Относительная влажность воздуха - влажноcть воздуха, измеренная на высоте 2 м над землей.
Te - Эффективная температура - температура, которую ощущает одетый по сезону человек в тени. Характеристика душности погоды. При расчете учитывается влияние влажности воздуха и скорости ветра на теплоощущения человека.
Tes - Эффективная температура на солнце - температура, которую ощущает человек, с поправкой на солнечный нагрев. Характеристика знойности погоды. Зависит от высоты солнца над горизонтом, облачности и скорости ветра. Ночью, в пасмурную погоду, а также при ветре 12 м/с и более поправка равна нулю.
P - Атмосферное давление - приведенное к уровню моря атмосферное давление.
Po - Атмосферное давление - измеренное на уровне метеостанции атмосферное давление.
Tmin - Минимальная температура - минимум температуры воздуха на высоте 2 м над землей.
Tmax - Максимальная температура - максимум температуры воздуха на высоте 2 м над землей.
R - Количество осадков - Количество выпавших осадков за период времени, мм. При наведении курсора мыши на число - период времени, за который выпало указанное количество осадков.
R24 - Количество осадков - Количество выпавших осадков за 24 часа, мм.
S - Снежный покров - Высота снежного покрова, см. При наведении курсора мыши на число - состояние снежного покрова и степень покрытия местности в баллах.